Miscellaneous Local Product
Issued by NWS Hastings, NE

Home | Current Version | Previous Version | Graphics & Text | Print | Product List | Glossary On
Versions: 1 2 3 4 5 6 7 8 9 10 11 12 13 14 15 16 17 18 19 20 21 22 23 24 25 26 27 28 29 30 31 32 33 34 35 36 37 38 39 40 41 42 43 44 45 46 47 48 49 50
331
AXUS43 KGID 261202
MISGRI

GID CWA HOURLY WEATHER ROUNDUP
NATIONAL WEATHER SERVICE HASTINGS NE
700 AM CDT TUE SEP 26 2017

NOTE: "FAIR" INDICATES FEW OR NO CLOUDS BELOW 12,000 FEET WITH NO
SIGNIFICANT WEATHER AND/OR OBSTRUCTIONS TO VISIBILITY.

...SOUTH CENTRAL NEBRASKA...

CITY           SKY/WX    TMP DP  RH WIND       PRES   REMARKS
GRAND ISLAND     N/A    N/A N/A N/A MISG      30.12R
HASTINGS       CLOUDY    49  46  90 N10       30.11R
KEARNEY        CLOUDY    48  45  89 N16       30.13R
ORD            CLOUDY    48  44  86 N9        30.10S
YORK           CLOUDY    50  50 100 N9        30.09R
AURORA         CLOUDY    49  49  98 NW12      30.10R
LEXINGTON      CLOUDY    49  46  88 NW9G16    30.13R
HOLDREGE       CLOUDY    45  44  96 NW3       30.12R
HEBRON         CLOUDY    52  51  95 N9        30.08S

...NEBRASKA PANHANDLE...

CITY           SKY/WX    TMP DP  RH WIND       PRES   REMARKS
CHADRON        CLEAR     42  38  85 SW3       30.12R
ALLIANCE       PTCLDY    34  33  96 SE3       30.13S FOG
SCOTTSBLUFF    CLEAR     37  35  92 E5        30.14R WCI  33
SIDNEY         CLEAR     32  31  96 W3        30.16R

...WESTERN AND NORTH CENTRAL NEBRASKA...

CITY           SKY/WX    TMP DP  RH WIND       PRES   REMARKS
VALENTINE      CLEAR     40  38  93 SW7       30.12S
AINSWORTH      CLEAR     41  41 100 W3        30.11F
ONEILL         CLOUDY    47  47  97 NW8       30.11R
BROKEN BOW     CLOUDY    48  44  86 N12       30.12R
IMPERIAL       CLOUDY    45  42  89 N3        30.16R
NORTH PLATTE   CLOUDY    48  44  86 NW9       30.15R
MCCOOK         PTCLDY    44  44 100 NW5       30.16R

...EASTERN NEBRASKA...

CITY           SKY/WX    TMP DP  RH WIND       PRES   REMARKS
NORFOLK        CLOUDY    50  48  93 NW15G21   30.06S
SO SIOUX CITY  CLOUDY    52  52 100 NW14      30.04R
TEKAMAH        CLOUDY    53  51  93 NW9       30.04R
COLUMBUS       CLOUDY    51  49  92 NW8       30.10R
ALBION         CLOUDY    50  47  90 N10G16    30.10R
OMAHA EPPLEY   CLOUDY    56  52  86 NW10      30.03R FOG
OFFUTT AFB     CLOUDY    56  54  93 NW8       30.03R
MILLARD        CLOUDY    56  54  93 NW9       30.04R
LINCOLN        CLOUDY    54  51  90 N12       30.08R
NEBRASKA CITY  CLOUDY    55  55 100 NW10      30.04R FOG
BEATRICE       CLOUDY    53  53  98 NW9       30.06R FOG
FALLS CITY     CLOUDY    58  57  97 NW12      30.02R

...NORTHERN KANSAS...

CITY           SKY/WX    TMP DP  RH WIND       PRES   REMARKS
GOODLAND       CLOUDY    46  45  96 N6        30.16S
HILL CITY      PTCLDY    49  48  97 NW3       30.15R
NORTON         MOSUNNY   45  43  93 W5        30.14R
PHILLIPSBURG   CLEAR     48  48 100 W5        30.14R
SMITH CENTER   CLOUDY    48  46  93 N7        30.12R
HAYS           CLOUDY    51  48  89 N14       30.12R
RUSSELL        CLOUDY    51  49  92 N14       30.10R
CONCORDIA      CLOUDY    52  52 100 NW10      30.09R
SALINA         CLOUDY    56  53  90 NW14      30.08R
TOPEKA         CLOUDY    66  66 100 W3        30.00R



USA.gov is the U.S. government's official web portal to all federal, state and local government web resources and services.